CDT,Max TemperatureF,Mean TemperatureF,Min TemperatureF,Max Dew PointF,MeanDew PointF,Min DewpointF,Max Humidity, Mean Humidity, Min Humidity, Max Sea Level PressureIn, Mean Sea Level PressureIn, Min Sea Level PressureIn, Max VisibilityMiles, Mean VisibilityMiles, Min VisibilityMiles, Max Wind SpeedMPH, Mean Wind SpeedMPH, Max Gust SpeedMPH,PrecipitationIn, CloudCover, Events, WindDirDegrees
2013-3-1,23,18,12,18,15,10,93,85,74,30.33,30.28,30.19,10,10,10,12,8,18,0.00,5,Snow,23
2013-3-2,26,14,3,21,14,1,93,84,74,30.30,30.18,30.03,10,9,1,12,3,,0.00,4,Snow,175
2013-3-3,33,26,19,27,23,18,93,86,75,30.02,29.86,29.73,10,8,5,21,11,26,0.00,3,,153
2013-3-4,30,28,24,28,26,21,100,93,74,29.91,29.80,29.69,10,5,2,16,8,18,0.01,7,Snow,179
2013-3-5,26,22,17,21,19,16,100,86,80,30.33,30.11,29.88,10,8,2,20,11,31,0.00,8,Snow,341
2013-3-6,21,18,14,19,16,12,93,89,79,30.38,30.31,30.23,10,8,1,13,7,16,0.02,8,Snow,105
2013-3-7,33,25,17,28,22,16,100,91,75,30.23,30.16,30.08,10,7,2,20,13,24,0.00,3,Snow,152
2013-3-8,39,31,23,34,28,21,100,88,70,30.18,30.09,29.90,10,5,2,16,9,22,0.04,2,Rain,137
2013-3-9,37,32,28,36,33,27,100,97,93,29.88,29.73,29.62,10,4,0,23,11,32,0.32,8,Rain-Snow,94
2013-3-10,28,22,17,27,20,16,93,88,80,29.99,29.93,29.81,10,7,3,26,20,37,0.00,8,Snow,10
2013-3-11,28,20,12,21,15,9,93,77,55,29.93,29.85,29.79,10,10,10,17,11,23,0.01,5,,335
2013-3-12,26,22,17,25,19,14,93,82,69,30.26,30.05,29.88,10,8,2,25,15,34,0.00,7,Snow,329
2013-3-13,33,22,12,27,18,9,93,82,69,30.34,30.26,30.11,10,10,10,15,7,21,0.00,2,Snow,234
2013-3-14,46,37,28,37,30,23,100,81,66,30.10,30.03,29.97,10,10,5,20,10,26,0.00,1,,275
2013-3-15,35,32,28,36,31,28,100,94,87,29.97,29.85,29.76,10,4,0,15,7,20,0.00,6,Fog,59
2013-3-16,28,20,12,28,15,7,100,85,73,30.20,30.09,29.88,10,9,2,17,11,24,0.00,6,Snow,12
2013-3-17,30,19,8,28,15,3,93,80,68,30.19,29.94,29.60,10,9,0,25,12,33,0.00,7,Snow,135
2013-3-18,33,22,10,32,12,3,100,80,62,29.95,29.76,29.60,10,7,1,26,20,36,0.00,6,Snow,304
2013-3-19,23,13,3,16,5,0,85,71,53,30.28,30.11,29.95,10,10,4,25,13,33,0.00,4,Snow,339
2013-3-20,19,12,5,7,4,0,85,70,53,30.30,30.22,30.10,10,10,10,18,13,25,0.00,0,,342
2013-3-21,30,18,5,19,9,0,93,74,55,30.09,30.00,29.93,10,10,10,13,4,9,0.00,0,,100
2013-3-22,30,22,14,23,16,10,93,77,60,30.04,30.00,29.97,10,10,7,10,5,,0.00,3,Snow,119
2013-3-23,32,26,21,21,20,19,93,78,60,30.12,30.09,30.04,10,10,5,15,4,21,0.00,6,Snow,26
2013-3-24,28,24,19,25,19,16,93,82,74,30.11,30.05,29.98,10,8,2,20,11,26,0.00,8,Snow,2
2013-3-25,28,24,19,19,18,16,93,80,64,30.28,30.18,30.08,10,10,5,17,12,25,0.00,8,Snow,356
2013-3-26,35,24,14,25,17,12,93,77,48,30.29,30.25,30.19,10,10,10,8,5,,0.00,1,,275
2013-3-27,46,34,21,28,24,18,93,72,46,30.24,30.22,30.18,10,10,10,14,8,18,0.00,0,,147
2013-3-28,55,42,30,36,32,27,93,74,41,30.23,30.19,30.15,10,10,10,15,9,20,0.00,2,,172
2013-3-29,60,46,33,43,37,30,93,70,45,30.20,30.10,29.96,10,10,7,23,9,26,0.00,2,,176
2013-3-30,55,45,33,43,39,34,100,80,54,29.96,29.92,29.89,10,8,0,17,10,24,0.00,3,Thunderstorm,299
2013-3-31,35,28,21,34,24,14,100,75,44,30.16,29.99,29.89,10,9,0,21,13,30,0.00,4,,345